TimeCDT,TemperatureF,Dew PointF,Humidity,Sea Level PressureIn,VisibilityMPH,Wind Direction,Wind SpeedMPH,Gust SpeedMPH,PrecipitationIn,Events,Conditions,WindDirDegrees,DateUTC
12:53 AM,43.0,34.0,71,30.30,10.0,East,3.5,-,N/A,,Clear,100,2011-10-01 05:53:00
1:53 AM,42.1,33.1,70,30.31,10.0,East,4.6,-,N/A,,Clear,100,2011-10-01 06:53:00
2:53 AM,41.0,33.1,73,30.32,10.0,East,4.6,-,N/A,,Clear,90,2011-10-01 07:53:00
3:53 AM,39.9,33.1,77,30.32,10.0,East,4.6,-,N/A,,Clear,90,2011-10-01 08:53:00
4:53 AM,39.9,34.0,79,30.33,10.0,Calm,Calm,-,N/A,,Clear,0,2011-10-01 09:53:00
5:53 AM,39.0,34.0,82,30.33,10.0,ESE,4.6,-,N/A,,Clear,120,2011-10-01 10:53:00
7:53 AM,39.0,34.0,82,30.36,10.0,ESE,4.6,-,N/A,,Clear,120,2011-10-01 12:53:00
9:53 AM,48.9,35.1,59,30.37,10.0,SSE,10.4,-,N/A,,Clear,150,2011-10-01 14:53:00
10:53 AM,53.1,34.0,48,30.38,10.0,SSE,8.1,-,N/A,,Clear,150,2011-10-01 15:53:00
11:53 AM,55.0,34.0,45,30.37,10.0,SSE,8.1,-,N/A,,Clear,160,2011-10-01 16:53:00
12:53 PM,59.0,33.1,38,30.34,10.0,SE,9.2,-,N/A,,Clear,140,2011-10-01 17:53:00
1:53 PM,61.0,30.9,32,30.30,10.0,South,9.2,-,N/A,,Clear,170,2011-10-01 18:53:00
3:53 PM,64.9,30.9,28,30.26,10.0,South,11.5,-,N/A,,Clear,180,2011-10-01 20:53:00
4:53 PM,64.9,32.0,29,30.25,10.0,SE,11.5,-,N/A,,Clear,130,2011-10-01 21:53:00
5:53 PM,63.0,32.0,31,30.24,10.0,SSE,8.1,-,N/A,,Clear,150,2011-10-01 22:53:00
6:53 PM,57.0,33.1,40,30.23,10.0,SE,6.9,-,N/A,,Clear,140,2011-10-01 23:53:00
8:53 PM,51.1,35.1,54,30.21,10.0,SSE,8.1,-,N/A,,Clear,150,2011-10-02 01:53:00
9:53 PM,52.0,34.0,50,30.20,10.0,SSE,10.4,-,N/A,,Clear,150,2011-10-02 02:53:00
10:53 PM,50.0,34.0,54,30.21,10.0,SSE,8.1,-,N/A,,Clear,150,2011-10-02 03:53:00
11:53 PM,48.9,34.0,56,30.22,10.0,South,5.8,-,N/A,,Clear,170,2011-10-02 04:53:00